Regional Weather Roundup
Issued by NWS

Home | Current Version | Previous Version | Graphics & Text | Print | Product List | Glossary On
Versions: 1 2 3 4 5 6 7 8 9 10 11 12 13 14 15 16 17 18 19 20 21 22 23 24 25 26 27 28 29 30 31 32 33 34 35 36 37 38 39 40 41 42 43 44 45 46 47 48 49 50
000
ASUS43 KOAX 300102
RWRNE

WEATHER ROUNDUP FOR NEBRASKA
NATIONAL WEATHER SERVICE OMAHA NE
800 PM CDT FRI APR 29 2016

NOTES: SATELLITE DATA IS BEING USED TO AUGMENT CLOUD COVER ABOVE
       12000 FEET.
       "FAIR" INDICATES FEW OR NO CLOUDS BELOW 12,000 FEET WITH NO
       SIGNIFICANT WEATHER AND/OR OBSTRUCTIONS TO VISIBILITY.

  * THESE STATIONS DO NOT REPORT WEATHER SUCH AS RAIN...SNOW OR FOG.

NEZ001>004-019>022-054>056-300200-
NEBRASKA PANHANDLE

CITY           SKY/WX    TMP DP  RH WIND       PRES   REMARKS
SCOTTSBLUFF    LGT RAIN  37  34  89 NE5       29.95F FOG     WCI  33
ALLIANCE       LGT SNOW  35  33  92 NE8       29.94F FOG     WCI  29
CHADRON        CLOUDY    42  35  76 NE12      29.98S
KIMBALL        SNOW      33  33 100 N6        29.92F VSB 1/2 WCI  27
SIDNEY         SNOW      33  31  92 N9        29.91F VSB 1/2 WCI  25
$$

NEZ057>060-069>072-079>082-300200-
SOUTHWEST NEBRASKA

CITY           SKY/WX    TMP DP  RH WIND       PRES   REMARKS
NORTH PLATTE   LGT RAIN  40  37  89 NE13      29.90S WCI  32
IMPERIAL       LGT SNOW  33  32  96 N10       29.92R FOG     WCI  25
LEXINGTON      CLOUDY    42  38  87 NE22G30   29.87F
MCCOOK         RAIN      41  40  96 NE5       29.88R FOG
$$

NEZ005>010-023>029-035>040-094-300200-
NORTH CENTRAL NEBRASKA

CITY           SKY/WX    TMP DP  RH WIND       PRES   REMARKS
VALENTINE      CLOUDY    40  37  89 E10       30.01R FOG     WCI  33
AINSWORTH      LGT RAIN  40  39  97 NE14      30.01R WCI  32
BROKEN BOW     CLOUDY    41  38  89 NE17      29.93S
ORD            CLOUDY    42  39  89 E10       29.95R
$$

NEZ041-046>049-061>064-073>077-083>087-300200-
SOUTH CENTRAL NEBRASKA

CITY           SKY/WX    TMP DP  RH WIND       PRES   REMARKS
GRAND ISLAND   CLOUDY    43  39  86 E18       29.92S
AURORA         CLOUDY    44  41  91 E21       29.91S
HASTINGS       CLOUDY    42  40  92 NE18      29.87F
KEARNEY *      CLOUDY    43  37  81 NE24      29.89S
YORK           CLOUDY    45  41  87 E17G24    29.91S
$$

NEZ011>018-030>034-042>045-300200-
NORTHEAST NEBRASKA

CITY           SKY/WX    TMP DP  RH WIND       PRES   REMARKS
NORFOLK        CLOUDY    44  40  85 E12       29.98R
ALBION         CLOUDY    43  40  86 E14G21    29.97R
BLAIR          CLOUDY    47  43  85 NE14      29.96F
COLUMBUS *     CLOUDY    45  36  70 NE15G23   29.96R
FREMONT        CLOUDY    46  42  84 NE12G17   29.97F
TEKAMAH        CLOUDY    47  42  83 E12       30.01R
$$

NEZ050>053-065>068-078-088>093-300200-
SOUTHEAST NEBRASKA

CITY           SKY/WX    TMP DP  RH WIND       PRES   REMARKS
LINCOLN        CLOUDY    48  43  82 NE20      29.93F
OMAHA EPPLEY   CLOUDY    49  42  77 NE10      29.97R
FALLS CITY     CLOUDY    51  47  86 E21G26    29.87F
$$

NEZ044-045-051>053-067-300200-
OMAHA AREA

CITY           SKY/WX    TMP DP  RH WIND       PRES   REMARKS
OMAHA EPPLEY   CLOUDY    49  42  77 NE10      29.97R
BLAIR          CLOUDY    47  43  85 NE14      29.96F
FREMONT        CLOUDY    46  42  84 NE12G17   29.97F
$$



USA.gov is the U.S. government's official web portal to all federal, state and local government web resources and services.